• In Germany
  • List of Countries
  • For 7 days
  • Water Temperature
  • Satellite Maps
  • Weather Map
  • Weather Widgets
  • user-avatar
    Login

    Hourly Weather Giumri

    Today, 29 June, Thursday

    Time Temperature Precipitation Wind Pressure Humidity
    00:00 +16°C° 0.2 mm 2 mps 633 mmHg 90%
    01:00 +16°C° 0.4 mm 2 mps 633 mmHg 90%
    02:00 +15°C° 0.4 mm 2 mps 633 mmHg 91%
    03:00 +15°C° 0.4 mm 2 mps 633 mmHg 91%
    04:00 +16°C° 0.4 mm 2 mps 633 mmHg 90%
    05:00 +16°C° 0.4 mm 2 mps 633 mmHg 89%
    06:00 +17°C° 0.4 mm 2 mps 634 mmHg 89%
    07:00 +20°C° 0.2 mm 1 mps 634 mmHg 81%
    08:00 +22°C° 0.2 mm 1 mps 635 mmHg 73%
    09:00 +24°C° 0.2 mm 1 mps 635 mmHg 65%
    10:00 +26°C° 0.2 mm 1 mps 635 mmHg 59%
    11:00 +27°C° 0.2 mm 1 mps 635 mmHg 53%
    12:00 +28°C° 0.2 mm 1 mps 636 mmHg 47%
    13:00 +28°C° 0.6 mm 1 mps 635 mmHg 50%
    14:00 +28°C° 0.6 mm 2 mps 635 mmHg 52%
    15:00 +28°C° 0.6 mm 2 mps 635 mmHg 54%
    16:00 +27°C° 1 mm 2 mps 635 mmHg 60%
    17:00 +25°C° 1 mm 3 mps 634 mmHg 66%
    18:00 +24°C° 1 mm 3 mps 634 mmHg 72%
    19:00 +21°C° 0.6 mm 3 mps 634 mmHg 78%
    20:00 +19°C° 0.6 mm 2 mps 634 mmHg 83%
    21:00 +17°C° 0.6 mm 2 mps 633 mmHg 89%
    22:00 +16°C° 0.4 mm 2 mps 633 mmHg 90%
    23:00 +16°C° 0.4 mm 2 mps 633 mmHg 91%

    Tomorrow, 30 June, Friday

    Time Temperature Precipitation Wind Pressure Humidity
    00:00 +15°C° 0.4 mm 2 mps 633 mmHg 93%
    01:00 +15°C° 0.3 mm 2 mps 633 mmHg 93%
    02:00 +14°C° 0.3 mm 2 mps 633 mmHg 93%
    03:00 +14°C° 0.3 mm 2 mps 633 mmHg 93%
    04:00 +15°C° 0.2 mm 2 mps 633 mmHg 91%
    05:00 +15°C° 0.2 mm 2 mps 633 mmHg 89%
    06:00 +16°C° 0.2 mm 2 mps 634 mmHg 87%
    07:00 +18°C° 0 mm 2 mps 634 mmHg 77%
    08:00 +20°C° 0 mm 2 mps 635 mmHg 68%
    09:00 +23°C° 0 mm 2 mps 635 mmHg 58%
    10:00 +24°C° 0.2 mm 2 mps 635 mmHg 54%
    11:00 +25°C° 0.2 mm 2 mps 636 mmHg 51%
    12:00 +26°C° 0.2 mm 3 mps 636 mmHg 48%
    13:00 +26°C° 0.4 mm 3 mps 635 mmHg 50%
    14:00 +26°C° 0.4 mm 3 mps 635 mmHg 51%
    15:00 +26°C° 0.4 mm 3 mps 635 mmHg 53%
    16:00 +25°C° 0.5 mm 3 mps 635 mmHg 58%
    17:00 +24°C° 0.5 mm 3 mps 634 mmHg 64%
    18:00 +22°C° 0.5 mm 3 mps 634 mmHg 69%
    19:00 +20°C° 0.4 mm 3 mps 634 mmHg 76%
    20:00 +18°C° 0.4 mm 3 mps 634 mmHg 82%
    21:00 +16°C° 0.4 mm 2 mps 634 mmHg 89%
    22:00 +15°C° 0.2 mm 2 mps 634 mmHg 90%
    23:00 +15°C° 0.2 mm 2 mps 634 mmHg 91%

    Day after tomorrow, 1 July, Saturday

    Time Temperature Precipitation Wind Pressure Humidity
    00:00 +14°C° 0.2 mm 2 mps 634 mmHg 92%
    01:00 +14°C° 0 mm 2 mps 634 mmHg 92%
    02:00 +14°C° 0 mm 2 mps 634 mmHg 93%
    03:00 +13°C° 0 mm 2 mps 634 mmHg 93%
    04:00 +14°C° 0 mm 2 mps 634 mmHg 91%
    05:00 +15°C° 0 mm 2 mps 635 mmHg 89%
    06:00 +15°C° 0 mm 2 mps 635 mmHg 87%
    07:00 +17°C° 0 mm 2 mps 635 mmHg 75%
    08:00 +20°C° 0 mm 2 mps 636 mmHg 63%
    09:00 +23°C° 0 mm 2 mps 637 mmHg 51%
    10:00 +24°C° 0 mm 2 mps 637 mmHg 47%
    11:00 +25°C° 0 mm 2 mps 637 mmHg 43%
    12:00 +26°C° 0 mm 3 mps 637 mmHg 39%
    13:00 +27°C° 0 mm 3 mps 637 mmHg 39%
    14:00 +27°C° 0 mm 3 mps 637 mmHg 39%
    15:00 +27°C° 0 mm 3 mps 636 mmHg 40%
    16:00 +26°C° 0 mm 3 mps 636 mmHg 44%
    17:00 +26°C° 0 mm 3 mps 636 mmHg 49%
    18:00 +25°C° 0 mm 3 mps 636 mmHg 54%
    19:00 +21°C° 0.1 mm 2 mps 635 mmHg 61%
    20:00 +18°C° 0.1 mm 2 mps 635 mmHg 69%
    21:00 +15°C° 0.1 mm 2 mps 634 mmHg 76%
    22:00 +15°C° 0 mm 2 mps 634 mmHg 75%
    23:00 +14°C° 0 mm 2 mps 634 mmHg 74%

    2 July, Sunday

    Time Temperature Precipitation Wind Pressure Humidity
    00:00 +14°C° 0 mm 2 mps 634 mmHg 73%
    01:00 +13°C° 0 mm 2 mps 634 mmHg 71%
    02:00 +13°C° 0 mm 2 mps 634 mmHg 70%
    03:00 +13°C° 0 mm 2 mps 633 mmHg 69%
    04:00 +14°C° 0 mm 2 mps 634 mmHg 67%
    05:00 +15°C° 0 mm 1 mps 634 mmHg 66%
    06:00 +16°C° 0 mm 1 mps 635 mmHg 64%
    07:00 +19°C° 0 mm 1 mps 635 mmHg 56%
    08:00 +21°C° 0 mm 2 mps 636 mmHg 48%
    09:00 +24°C° 0 mm 2 mps 636 mmHg 40%
    10:00 +26°C° 0 mm 2 mps 636 mmHg 37%
    11:00 +27°C° 0 mm 2 mps 636 mmHg 35%
    12:00 +28°C° 0 mm 3 mps 636 mmHg 33%
    13:00 +29°C° 0 mm 3 mps 636 mmHg 33%
    14:00 +29°C° 0 mm 3 mps 636 mmHg 33%
    15:00 +30°C° 0 mm 3 mps 635 mmHg 33%
    16:00 +28°C° 0 mm 3 mps 635 mmHg 38%
    17:00 +27°C° 0 mm 2 mps 635 mmHg 42%
    18:00 +26°C° 0 mm 2 mps 634 mmHg 47%
    19:00 +23°C° 0 mm 2 mps 634 mmHg 57%
    20:00 +19°C° 0 mm 2 mps 633 mmHg 67%
    21:00 +16°C° 0 mm 2 mps 633 mmHg 78%
    22:00 +16°C° 0 mm 2 mps 633 mmHg 78%
    23:00 +15°C° 0 mm 2 mps 633 mmHg 79%

    3 July, Monday

    Time Temperature Precipitation Wind Pressure Humidity
    00:00 +15°C° 0 mm 1 mps 633 mmHg 79%
    01:00 +14°C° 0 mm 1 mps 632 mmHg 80%
    02:00 +14°C° 0 mm 1 mps 632 mmHg 80%
    03:00 +13°C° 0 mm 1 mps 632 mmHg 81%
    04:00 +15°C° 0 mm 1 mps 632 mmHg 78%
    05:00 +16°C° 0 mm 1 mps 633 mmHg 75%
    06:00 +18°C° 0 mm 1 mps 633 mmHg 72%
    07:00 +21°C° 0 mm 1 mps 634 mmHg 61%
    08:00 +24°C° 0 mm 1 mps 634 mmHg 51%
    09:00 +26°C° 0 mm 1 mps 635 mmHg 40%
    10:00 +28°C° 0 mm 2 mps 635 mmHg 37%
    11:00 +29°C° 0 mm 2 mps 635 mmHg 34%
    12:00 +30°C° 0 mm 2 mps 635 mmHg 31%
    13:00 +31°C° 0 mm 2 mps 635 mmHg 31%
    14:00 +31°C° 0 mm 2 mps 635 mmHg 31%
    15:00 +31°C° 0 mm 2 mps 634 mmHg 30%
    16:00 +30°C° 0.1 mm 2 mps 634 mmHg 36%
    17:00 +29°C° 0.1 mm 1 mps 634 mmHg 43%
    18:00 +28°C° 0.1 mm 1 mps 633 mmHg 49%
    19:00 +25°C° 0.2 mm 1 mps 633 mmHg 58%
    20:00 +22°C° 0.2 mm 1 mps 632 mmHg 66%
    21:00 +18°C° 0.2 mm 1 mps 631 mmHg 75%
    22:00 +18°C° 0.2 mm 1 mps 631 mmHg 77%
    23:00 +16°C° 0.2 mm 1 mps 631 mmHg 80%

    4 July, Tuesday

    Time Temperature Precipitation Wind Pressure Humidity
    00:00 +16°C° 0.2 mm 1 mps 631 mmHg 82%
    01:00 +15°C° 0.1 mm 1 mps 630 mmHg 83%
    02:00 +15°C° 0.1 mm 1 mps 630 mmHg 83%
    03:00 +14°C° 0.1 mm 1 mps 630 mmHg 84%
    04:00 +16°C° 0.1 mm 1 mps 631 mmHg 81%
    05:00 +17°C° 0.1 mm 0 mps 631 mmHg 78%
    06:00 +18°C° 0.1 mm 0 mps 632 mmHg 75%
    07:00 +23°C° 0 mm 1 mps 633 mmHg 63%
    08:00 +25°C° 0 mm 1 mps 633 mmHg 52%
    09:00 +28°C° 0 mm 1 mps 634 mmHg 40%
    10:00 +29°C° 0 mm 1 mps 634 mmHg 37%
    11:00 +31°C° 0 mm 2 mps 634 mmHg 34%
    12:00 +32°C° 0 mm 2 mps 634 mmHg 31%
    13:00 +32°C° 0.2 mm 1 mps 634 mmHg 32%
    14:00 +32°C° 0.2 mm 1 mps 634 mmHg 33%
    15:00 +33°C° 0.2 mm 1 mps 634 mmHg 34%
    16:00 +31°C° 0.3 mm 1 mps 634 mmHg 40%
    17:00 +30°C° 0.3 mm 1 mps 633 mmHg 46%
    18:00 +29°C° 0.3 mm 1 mps 633 mmHg 51%
    19:00 +26°C° 0.4 mm 2 mps 633 mmHg 60%
    20:00 +23°C° 0.4 mm 2 mps 632 mmHg 68%
    21:00 +20°C° 0.4 mm 2 mps 632 mmHg 76%
    22:00 +19°C° 0.2 mm 2 mps 632 mmHg 79%
    23:00 +18°C° 0.2 mm 2 mps 632 mmHg 81%
    Show more